Simultaneous Nadir Overpasses (SNOs) Predictions

Prediction of SNOs between AQUA and METOP-A Satellite Orbit:

Table of predicted SNOs for the next 14.0 days since TLE Epoch: 8/2/2019
Index Date (AQUA) Time (AQUA) Lat,Lon (AQUA) SZA (AQUA ) Date (METOP-A) Time (METOP-A) Lat,Lon (METOP-A) SZA (METOP-A ) Distance(km) Time Diff (sec)
1 08/03/2019 07:16:47 75.32, 61.50 57.98 08/03/2019 07:16:28 75.33, 61.42 58.00 2.70 19
2 08/03/2019 08:06:13 -75.38,-131.03 121.95 08/03/2019 08:07:07 -75.41,-131.03 121.93 3.23 54
3 08/06/2019 02:51:01 75.33, 127.91 58.74 08/06/2019 02:50:25 75.33, 127.89 58.75 0.80 36
4 08/06/2019 03:40:28 -75.39, -64.62 121.19 08/06/2019 03:41:05 -75.41, -64.57 121.18 2.43 37
5 08/08/2019 22:25:16 75.34,-165.69 59.53 08/08/2019 22:24:09 75.33,-165.58 59.54 3.17 67
6 08/08/2019 23:14:42 -75.35, 1.92 120.45 08/08/2019 23:14:50 -75.36, 1.81 120.44 3.04 8
7 08/09/2019 00:04:13 75.54, 169.04 59.78 08/09/2019 00:05:25 75.55, 169.72 59.73 18.88 72
8 08/11/2019 18:48:57 -75.37, 68.31 119.61 08/11/2019 18:48:20 -75.35, 68.39 119.62 2.97 37
9 08/11/2019 19:38:25 75.40,-124.15 60.44 08/11/2019 19:38:58 75.39,-124.17 60.42 2.20 33
10 08/14/2019 15:12:38 75.38, -57.63 61.26 08/14/2019 15:12:13 75.37, -57.58 61.25 1.64 25
11 08/14/2019 16:02:05 -75.44, 109.84 118.67 08/14/2019 16:02:53 -75.43, 109.93 118.69 2.78 48




NCC Satellite Simultaneous Nadir Overpasses (SNOs) Prediction Service
